Погода в Луостарях

Россия / Мурманская область     69°25′07″N   31°06′40″E
темп.,
°C
ветер,
м/с
пор.,
м/с
влажн.,
%
обл.,
%
осадки,
мм/ч
давл.,
гПа
погр.,
м
13 апреля, вт
вт1300:00−7зюз2288100 0.0 102211
03:00−7зюз2288100 0.0 102110
06:00−7юз1187100 0.0 102010
09:00−3зюз1175100 0.0 101950
12:00−1з0069100 0.0 1018214
15:00−1юв0168100 0.0 1017310
18:00−2вюв1179100 0.0 101510
21:00−4в1185100 0.0 101410
14 апреля, ср
ср1400:00−4св1190100 0.0 101211
03:00−4с3397100 0.9 100982
06:00−4зсз1197100 1.2 100760
09:00−3зюз3885100 1.2 1007405
12:00−2з8118064 0.0 1008798
15:00−1з811815 0.0 1009876
18:00−2з91495100 0.4 1011789
21:00−4з10177662 0.4 1013393
15 апреля, чт
чт1500:00−3з13197563 0.0 1014563
03:00−4з14217749 0.0 1015635
06:00−3з101777100 0.0 1018361
09:00−2з41075100 0.0 1019303
12:00−2зюз3493100 0.1 1020340
15:00−1юз1190100 0.1 1021389
18:000с1183100 0.0 1023380
21:00
16 апреля, пт
пт1600:00−5зюз119377 0.0 102510
03:00−5юз2296100 0.0 102616
06:00−3юз2297100 0.1 102714
09:000зюз39100100 0.6 1028386
12:00+1зсз10159799 0.5 1028692
15:00+2зсз9149635 0.5 1030561
18:00+1зсз81498100 0.0 1031550
21:00+1з81497100 0.4 1033540
17 апреля, сб
сб1700:00+1зсз71398100 0.1 1032451
03:00+1зсз81598100 1.0 1032578
06:00+2з81596100 1.2 1032463
09:00+2з71289100 1.4 1032347
12:00+3зюз4987100 0.1 1032214
15:00+4зюз4986100 0.1 1032272
18:00+3зюз5108299 0.0 1031203
21:00+1зюз338462 0.0 103121